Concord, NH

10:34 AM EDT on October 17, 2017 (GMT -0400)
Concord Municipal

Weather History for KCON - July, 2013

Change the Weather History Date:

Wednesday, July 17, 2013

  Actual Average Record
Temperature  
Mean Temperature 80 °F 70 °F  
Max Temperature 94 °F 83 °F 97 °F (1999)
Min Temperature 66 °F 58 °F 41 °F (1902)
Degree Days  
Heating Degree Days 0 0  
Month to date heating degree days 0 13  
Since 1 June heating degree days 72 98  
Since 1 July heating degree days 0 13  
Cooling Degree Days 15 6  
Month to date cooling degree days 174 92  
Year to date cooling degree days 304 194  
Since 1 June cooling degree days 283 176  
Growing Degree Days 30 (Base 50)    
Moisture  
Dew Point 68 °F    
Average Humidity 71    
Maximum Humidity 100    
Minimum Humidity 41    
Precipitation  
Precipitation 0.00 in 0.12 in 1.94 in (1988)
Month to date precipitation 2.31 1.99  
Year to date precipitation 21.85 21.34  
Snow  
Snow 0.00 in 0.00 in 0.00 in (2002)
Month to date snowfall 0.0 0.0  
Since 1 June snowfall 0.0 0.0  
Since 1 July snowfall 0.0 0.0  
Snow Depth 0.00 in    
Sea Level Pressure  
Sea Level Pressure 30.10 in    
Wind  
Wind Speed 4 mph (WSW)    
Max Wind Speed 14 mph    
Max Gust Speed 17 mph    
Visibility 9 miles    
Events      
T = Trace of Precipitation, MM = Missing Value Source: NWS Daily Summary

Daily Weather History Graph

Daily Weather History Graph

Search for Another Location

Airport or City:

Trip Planner

Search our weather history database for the weather conditions in past years. The results will help you decide how hot, cold, wet, or windy it might be!

Date:

Astronomy

Jul. 17, 2013 Rise Set
Actual Time 5:21 AM EDT 8:22 PM EDT
Civil Twilight 4:47 AM EDT 8:56 PM EDT
Nautical Twilight 4:04 AM EDT 9:39 PM EDT
Astronomical Twilight 3:12 AM EDT 10:30 PM EDT
Moon 3:05 PM EDT 12:30 AM EDT
Length of Visible Light 16h 08m
Length of Day
15h 00m
Waxing Gibbous, 67% of the Moon is Illuminated
Jul 17
Waxing Gibbous
Jul 22
Full
Jul 29
Last Quarter
Aug 6
New
Aug 14
First Quarter

Hourly Weather History & Observations

Time (EDT) Temp. Heat Index Dew Point Humidity Pressure Visibility Wind Dir Wind Speed Gust Speed Precip Events Conditions
12:51 AM 71.1 °F - 70.0 °F 96% 30.17 in 8.0 mi Calm Calm - N/A   Clear
1:51 AM 71.1 °F - 70.0 °F 96% 30.16 in 8.0 mi Calm Calm - N/A   Clear
2:51 AM 69.1 °F - 68.0 °F 96% 30.16 in 7.0 mi Calm Calm - N/A   Clear
3:51 AM 68.0 °F - 66.9 °F 96% 30.16 in 7.0 mi Calm Calm - N/A   Clear
4:51 AM 66.9 °F - 66.9 °F 100% 30.17 in 7.0 mi Calm Calm - N/A   Partly Cloudy
5:51 AM 66.0 °F - 66.0 °F 100% 30.18 in 6.0 mi Calm Calm - N/A   Clear
6:51 AM 72.0 °F - 68.0 °F 87% 30.18 in 9.0 mi Calm Calm - N/A   Clear
7:51 AM 75.0 °F - 66.9 °F 76% 30.18 in 10.0 mi Calm Calm - N/A   Clear
8:51 AM 79.0 °F - 69.1 °F 72% 30.18 in 10.0 mi NW 3.5 mph - N/A   Clear
9:51 AM 82.9 °F 86.5 °F 69.1 °F 63% 30.17 in 10.0 mi Calm Calm - N/A   Clear
10:51 AM 86.0 °F 88.8 °F 66.9 °F 53% 30.15 in 10.0 mi Variable 3.5 mph - N/A   Clear
11:51 AM 88.0 °F 90.3 °F 66.0 °F 48% 30.14 in 10.0 mi Variable 3.5 mph - N/A   Clear
12:51 PM 90.0 °F 92.4 °F 66.0 °F 45% 30.12 in 10.0 mi Calm Calm - N/A   Clear
1:51 PM 90.0 °F 92.8 °F 66.9 °F 46% 30.09 in 10.0 mi SSW 10.4 mph - N/A   Scattered Clouds
2:51 PM 91.9 °F 95.9 °F 68.0 °F 45% 30.07 in 10.0 mi SW 10.4 mph - N/A   Mostly Cloudy
3:51 PM 93.0 °F 97.9 °F 69.1 °F 45% 30.04 in 10.0 mi SW 5.8 mph - N/A   Partly Cloudy
4:51 PM 93.0 °F 96.4 °F 66.9 °F 42% 30.02 in 10.0 mi West 9.2 mph - N/A   Mostly Cloudy
5:51 PM 91.9 °F 95.4 °F 66.9 °F 44% 30.00 in 10.0 mi SW 10.4 mph - N/A   Clear
6:51 PM 90.0 °F 95.4 °F 70.0 °F 52% 29.99 in 10.0 mi SW 6.9 mph - N/A   Clear
7:51 PM 86.0 °F 90.7 °F 70.0 °F 59% 30.00 in 10.0 mi SW 4.6 mph - N/A   Clear
8:51 PM 82.9 °F 86.5 °F 69.1 °F 63% 29.99 in 10.0 mi SW 4.6 mph - N/A   Clear
9:51 PM 82.0 °F 84.9 °F 68.0 °F 62% 30.00 in 10.0 mi SSW 5.8 mph - N/A   Mostly Cloudy
10:51 PM 80.1 °F 82.9 °F 69.1 °F 69% 29.99 in 10.0 mi Calm Calm - N/A   Scattered Clouds
11:51 PM 81.0 °F 84.1 °F 69.1 °F 67% 30.00 in 10.0 mi NW 5.8 mph - N/A   Mostly Cloudy